Weather History for KBGD - October, 2012

Change the Weather History Date:

Saturday, October 13, 2012

  Actual Average Record
Temperature  
Mean Temperature 67 °F 61 °F  
Max Temperature 75 °F 74 °F 96 °F (1968)
Min Temperature 59 °F 49 °F 28 °F (1986)
Degree Days  
Heating Degree Days 0 5  
Month to date heating degree days 88 53  
Since 1 July heating degree days 105 81  
Cooling Degree Days 2 2  
Month to date cooling degree days 10 36  
Year to date cooling degree days 2468 1821  
Growing Degree Days 18 (Base 50)    
Moisture  
Dew Point 50 °F    
Average Humidity 54    
Maximum Humidity 87    
Minimum Humidity 20    
Precipitation  
Precipitation 0.41 in 0.06 in 0.60 in (1957)
Month to date precipitation 0.43 0.85  
Year to date precipitation 15.62 19.24  
Snow  
Snow 0.00 in - 0.00 in (2013)
Month to date snowfall 0.0  
Since 1 July snowfall 0.0  
Since 1 September snowfall 0.0  
Snow Depth 0.00 in    
Sea Level Pressure  
Sea Level Pressure 29.81 in    
Wind  
Wind Speed 15 mph (WSW)    
Max Wind Speed 30 mph    
Max Gust Speed 41 mph    
Visibility 10 miles    
Events Rain , Thunderstorm    
T = Trace of Precipitation, MM = Missing Value Source: NWS Daily Summary

Daily Weather History Graph

Daily Weather History Graph

Search for Another Location

Airport or City:

Trip Planner

Search our weather history database for the weather conditions in past years. The results will help you decide how hot, cold, wet, or windy it might be!

Date:

Astronomy

Oct. 13, 2012 Rise Set
Actual Time 7:50 AM CDT 7:11 PM CDT
Civil Twilight 7:25 AM CDT 7:37 PM CDT
Nautical Twilight 6:55 AM CDT 8:07 PM CDT
Astronomical Twilight 6:25 AM CDT 8:36 PM CDT
Moon 5:46 AM CDT (10/13) 5:55 PM CDT (10/13)
Length of Visible Light 12h 12m
Length of Day
11h 21m
Waning Crescent, 5% of the Moon is Illuminated
Oct 13
Waning Crescent
Oct 15
New
Oct 21
First Quarter
Oct 29
Full
Nov 6
Last Quarter

Hourly Weather History & Observations

Time (CDT) Temp. Dew Point Humidity Pressure Visibility Wind Dir Wind Speed Gust Speed Precip Events Conditions
2:51 AM 66.0 °F 61.0 °F 84% 29.83 in 10.0 mi South 15.0 mph 31.1 mph N/A   Clear
3:51 AM 66.0 °F 61.0 °F 84% 29.88 in 10.0 mi West 20.7 mph 28.8 mph N/A Thunderstorm Mostly Cloudy
4:01 AM 62.6 °F 55.4 °F 77% 29.96 in 10.0 mi West 12.7 mph 39.1 mph N/A Thunderstorm Mostly Cloudy
4:12 AM 62.6 °F 55.4 °F 77% 29.92 in 10.0 mi West 15.0 mph 33.4 mph N/A Thunderstorm Thunderstorm
4:26 AM 62.6 °F 59.0 °F 88% 29.93 in 1.8 mi WSW 11.5 mph 20.7 mph 0.20 in Rain , Thunderstorm Heavy Thunderstorms and Rain
4:51 AM 64.0 °F 62.1 °F 93% 29.83 in 10.0 mi SSW 8.1 mph - 0.41 in Rain , Thunderstorm Light Thunderstorms and Rain
5:22 AM 66.2 °F 62.6 °F 88% 29.92 in 10.0 mi SW 5.8 mph - 0.00 in   Overcast
6:51 AM 66.9 °F 63.0 °F 87% 29.81 in 10.0 mi SSW 11.5 mph - N/A   Clear
7:51 AM 66.0 °F 62.1 °F 87% 29.81 in 10.0 mi SW 9.2 mph - N/A   Clear
8:51 AM 66.9 °F 61.0 °F 81% 29.80 in 10.0 mi SSW 10.4 mph 17.3 mph N/A   Clear
9:51 AM 68.0 °F 54.0 °F 61% 29.80 in 10.0 mi SW 13.8 mph 20.7 mph N/A   Clear
10:51 AM 70.0 °F 52.0 °F 53% 29.79 in 10.0 mi SW 10.4 mph 18.4 mph N/A   Clear
11:51 AM 72.0 °F 45.0 °F 38% 29.78 in 10.0 mi WSW 19.6 mph 28.8 mph N/A   Clear
1:51 PM 72.0 °F 37.0 °F 28% 29.73 in 10.0 mi West 18.4 mph 31.1 mph N/A   Clear
2:51 PM 73.0 °F 32.0 °F 22% 29.72 in 10.0 mi West 20.7 mph 31.1 mph N/A   Clear
3:51 PM 73.0 °F 32.0 °F 22% 29.70 in 10.0 mi WSW 18.4 mph 26.5 mph N/A   Clear
4:51 PM 73.0 °F 33.1 °F 23% 29.71 in 10.0 mi WSW 21.9 mph 29.9 mph N/A   Clear
6:51 PM 71.1 °F 30.0 °F 22% 29.72 in 10.0 mi West 8.1 mph - N/A   Clear
7:51 PM 66.9 °F 37.0 °F 33% 29.78 in 10.0 mi NW 6.9 mph 18.4 mph N/A   Clear
9:51 PM 61.0 °F 41.0 °F 48% 29.86 in 10.0 mi West 5.8 mph - N/A   Overcast